Location: Aldenham
(51.6667°N, 0.3500°W)
Time: 07:55:39
(UTC+00:00)

Explorer 7 - Pass Details

Date: 16 February 2026
Orbit: 430 x 541 km, 50.2° (Epoch: 12 March)

Event Time Altitude Azimuth Distance (km) Brightness Sun altitude
Rises 20:35:25 0° 280° (W) 2,551 11.3 -30.8°
Reaches altitude 10° 20:37:40 10° 272° (W) 1,690 10.1 -31.1°
Enters shadow 20:38:41 17° 264° (W) 1,333 9.4 -31.3°
Maximum altitude 20:41:11 35° 205° (SSW) 828 - -31.6°
Drops below altitude 10° 20:44:50 10° 139° (SE) 1,746 - -32.2°
Sets 20:47:11 0° 131° (SE) 2,650 - -32.5°
